| time (UTC) | temp C | wind direction | speed KPH | gust KPH | rain 1hr cm | rain 24hr cm | rain mn cm | humidity % | barometer mb |
| 20260503184611 | 15 | 107 | 9.7 | 24.1 | 0.00 | 0.00 | 0.00 | 37 | 1015.9 |
| 20260503184519 | 15 | 165 | 8.0 | 24.1 | 0.00 | 0.00 | 0.00 | 37 | 1016.7 |
| 20260503184110 | 15 | 125 | 9.7 | 24.1 | 0.00 | 0.00 | 0.00 | 38 | 1016.0 |
| 20260503183543 | 15 | 76 | 9.7 | 24.1 | 0.00 | 0.00 | 0.00 | 37 | 1016.2 |
| 20260503183055 | 15 | 138 | 8.0 | 24.1 | 0.00 | 0.00 | 0.00 | 38 | 1017.0 |
| 20260503183037 | 15 | 200 | 9.7 | 24.1 | 0.00 | 0.00 | 0.00 | 38 | 1016.2 |
| 20260503182536 | 15 | 161 | 9.7 | 25.7 | 0.00 | 0.00 | 0.00 | 37 | 1016.1 |
| 20260503182034 | 15 | 20 | 11.3 | 29.0 | 0.00 | 0.00 | 0.00 | 35 | 1016.2 |
| 20260503181547 | 15 | 113 | 11.3 | 29.0 | 0.00 | 0.00 | 0.00 | 36 | 1017.1 |
| 20260503181509 | 16 | 131 | 9.7 | 27.4 | 0.00 | 0.00 | 0.00 | 36 | 1016.3 |
| 20260503181004 | 16 | 151 | 8.0 | 24.1 | 0.00 | 0.00 | 0.00 | 39 | 1016.3 |
| 20260503180501 | 15 | 99 | 9.7 | 24.1 | 0.00 | 0.00 | 0.00 | 38 | 1016.4 |
| 20260503180153 | 15 | 84 | 9.7 | 27.4 | 0.00 | 0.00 | 0.00 | 36 | 1016.5 |
| 20260503175433 | 15 | 75 | 9.7 | 27.4 | 0.00 | 0.00 | 0.00 | 37 | 1016.5 |
| 20260503174906 | 15 | 123 | 9.7 | 24.1 | 0.00 | 0.00 | 0.00 | 38 | 1016.6 |
| 20260503174506 | 15 | 187 | 12.9 | 25.7 | 0.00 | 0.00 | 0.00 | 38 | 1017.3 |
| 20260503174339 | 15 | 126 | 9.7 | 25.7 | 0.00 | 0.00 | 0.00 | 38 | 1016.5 |
| 20260503174100 | 15 | 137 | 9.7 | 25.7 | 0.00 | 0.00 | 0.00 | 37 | 1016.7 |
| 20260503173312 | 15 | 165 | 9.7 | 25.7 | 0.00 | 0.00 | 0.00 | 38 | 1016.8 |
| 20260503173002 | 15 | 90 | 9.7 | 22.5 | 0.00 | 0.00 | 0.00 | 37 | 1017.7 |
| 20260503172813 | 15 | 63 | 9.7 | 25.7 | 0.00 | 0.00 | 0.00 | 38 | 1016.8 |
| 20260503172249 | 15 | 60 | 9.7 | 25.7 | 0.00 | 0.00 | 0.00 | 38 | 1017.0 |
| 20260503171723 | 15 | 167 | 11.3 | 25.7 | 0.00 | 0.00 | 0.00 | 42 | 1017.2 |
| 20260503171541 | 14 | 132 | 11.3 | 25.7 | 0.00 | 0.00 | 0.00 | 36 | 1017.9 |
| 20260503171412 | 15 | 216 | 9.7 | 20.9 | 0.00 | 0.00 | 0.00 | 37 | 1017.3 |
| 20260503170651 | 15 | 91 | 11.3 | 24.1 | 0.00 | 0.00 | 0.00 | 38 | 1017.5 |
| 20260503170148 | 15 | 145 | 11.3 | 27.4 | 0.00 | 0.00 | 0.00 | 40 | 1017.5 |
| 20260503150923 | 12 | 112 | 8.0 | 20.9 | 0.00 | 0.00 | 0.00 | 50 | 1018.8 |
| 20260503150622 | 12 | 193 | 9.7 | 24.1 | 0.00 | 0.00 | 0.00 | 47 | 1018.8 |
| 20260503150124 | 12 | 210 | 9.7 | 24.1 | 0.00 | 0.00 | 0.00 | 46 | 1018.8 |
| 20260503131329 | 7 | 135 | 4.8 | 12.9 | 0.00 | 0.00 | 0.00 | 67 | 1018.8 |
| 20260503131052 | 7 | 273 | 3.2 | 8.0 | 0.00 | 0.00 | 0.00 | 73 | 1018.8 |
| 20260503130547 | 7 | 273 | 4.8 | 8.0 | 0.00 | 0.00 | 0.00 | 73 | 1018.8 |
| 20260503110754 | 3 | 305 | 0.0 | 4.8 | 0.00 | 0.00 | 0.00 | 82 | 1018.3 |
| 20260503110252 | 3 | 301 | 1.6 | 4.8 | 0.00 | 0.00 | 0.00 | 82 | 1018.2 |
| 20260503100109 | 2 | 306 | 0.0 | 3.2 | 0.00 | 0.00 | 0.00 | 86 | 1018.5 |
| 20260503090148 | 3 | 286 | 0.0 | 4.8 | 0.00 | 0.00 | 0.00 | 84 | 1017.7 |
| 20260503081539 | 3 | 284 | 0.0 | 4.8 | 0.00 | 0.00 | 0.00 | 83 | 1018.4 |
| 20260503081515 | 3 | 284 | 0.0 | 4.8 | 0.00 | 0.00 | 0.00 | 83 | 1017.6 |
| 20260503081256 | 3 | 284 | 1.6 | 3.2 | 0.00 | 0.00 | 0.00 | 83 | 1017.6 |
| 20260503080450 | 3 | 284 | 1.6 | 4.8 | 0.00 | 0.00 | 0.00 | 83 | 1017.5 |
| 20260503072734 | 3 | 284 | 0.0 | 1.6 | 0.00 | 0.00 | 0.00 | 84 | 1017.5 |
| 20260503072227 | 3 | 284 | 0.0 | 1.6 | 0.00 | 0.00 | 0.00 | 84 | 1017.5 |
| 20260503071725 | 3 | 284 | 0.0 | 1.6 | 0.00 | 0.00 | 0.00 | 84 | 1017.5 |
| 20260503071603 | 2 | 284 | 0.0 | 1.6 | 0.00 | 0.00 | 0.00 | 84 | 1018.3 |
| 20260503071159 | 3 | 284 | 0.0 | 1.6 | 0.00 | 0.00 | 0.00 | 84 | 1017.5 |
| 20260503070629 | 3 | 284 | 0.0 | 1.6 | 0.00 | 0.00 | 0.00 | 83 | 1017.6 |
| 20260503070345 | 3 | 284 | 0.0 | 1.6 | 0.00 | 0.00 | 0.00 | 83 | 1017.6 |
| 20260503060109 | 3 | 284 | 0.0 | 1.6 | 0.00 | 0.00 | 0.00 | 78 | 1018.6 |
| 20260503054802 | 4 | 284 | 0.0 | 1.6 | 0.00 | 0.00 | 0.00 | 77 | 1017.9 |
| 20260503054557 | 4 | 284 | 0.0 | 1.6 | 0.00 | 0.00 | 0.00 | 76 | 1018.7 |
| 20260503054238 | 4 | 284 | 0.0 | 3.2 | 0.00 | 0.00 | 0.00 | 76 | 1017.9 |
| 20260503053711 | 5 | 284 | 0.0 | 3.2 | 0.00 | 0.00 | 0.00 | 75 | 1017.9 |
| 20260503053204 | 5 | 284 | 0.0 | 3.2 | 0.00 | 0.00 | 0.00 | 75 | 1017.8 |
| 20260503053002 | 4 | 284 | 0.0 | 3.2 | 0.00 | 0.00 | 0.00 | 75 | 1018.7 |
| 20260503052706 | 5 | 284 | 0.0 | 4.8 | 0.00 | 0.00 | 0.00 | 75 | 1017.9 |
| 20260503052144 | 5 | 284 | 1.6 | 4.8 | 0.00 | 0.00 | 0.00 | 75 | 1017.9 |
| 20260503051858 | 5 | 284 | 0.0 | 3.2 | 0.00 | 0.00 | 0.00 | 75 | 1017.9 |
| 20260503051523 | 4 | 284 | 0.0 | 1.6 | 0.00 | 0.00 | 0.00 | 75 | 1018.7 |
| 20260503051341 | 5 | 284 | 0.0 | 3.2 | 0.00 | 0.00 | 0.00 | 74 | 1017.9 |
| 20260503050821 | 5 | 284 | 0.0 | 3.2 | 0.00 | 0.00 | 0.00 | 74 | 1017.8 |
| 20260503050050 | 5 | 284 | 0.0 | 3.2 | 0.00 | 0.00 | 0.00 | 73 | 1017.9 |
| 20260503050020 | 5 | 283 | 0.0 | 3.2 | 0.00 | 0.00 | 0.00 | 73 | 1018.7 |
| 20260503045524 | 5 | 284 | 0.0 | 1.6 | 0.00 | 0.00 | 0.00 | 72 | 1017.9 |
| 20260503045014 | 5 | 284 | 0.0 | 1.6 | 0.00 | 0.00 | 0.00 | 71 | 1017.9 |
| 20260503044733 | 5 | 284 | 0.0 | 4.8 | 0.00 | 0.00 | 0.00 | 71 | 1017.8 |
| 20260503044546 | 5 | 284 | 0.0 | 3.2 | 0.00 | 0.00 | 0.00 | 71 | 1018.7 |
| 20260503044011 | 5 | 283 | 1.6 | 4.8 | 0.00 | 0.00 | 0.00 | 70 | 1017.8 |
| 20260503043511 | 5 | 283 | 1.6 | 4.8 | 0.00 | 0.00 | 0.00 | 70 | 1017.9 |
| 20260503043212 | 5 | 283 | 0.0 | 3.2 | 0.00 | 0.00 | 0.00 | 70 | 1017.9 |
| 20260503043025 | 5 | 283 | 1.6 | 4.8 | 0.00 | 0.00 | 0.00 | 70 | 1018.7 |
| 20260503042422 | 5 | 283 | 0.0 | 3.2 | 0.00 | 0.00 | 0.00 | 70 | 1018.0 |
| 20260503041855 | 5 | 283 | 0.0 | 3.2 | 0.00 | 0.00 | 0.00 | 69 | 1017.9 |
| 20260503041544 | 5 | 283 | 0.0 | 3.2 | 0.00 | 0.00 | 0.00 | 68 | 1018.7 |
| 20260503041353 | 5 | 282 | 0.0 | 3.2 | 0.00 | 0.00 | 0.00 | 68 | 1017.9 |
| 20260503040849 | 5 | 282 | 0.0 | 1.6 | 0.00 | 0.00 | 0.00 | 68 | 1017.9 |
| 20260503040352 | 5 | 282 | 0.0 | 0.0 | 0.00 | 0.00 | 0.00 | 67 | 1017.9 |
| 20260503040006 | 5 | 282 | 0.0 | 0.0 | 0.00 | 0.00 | 0.00 | 66 | 1018.7 |
| 20260503035836 | 5 | 282 | 0.0 | 0.0 | 0.00 | 0.00 | 0.00 | 66 | 1017.9 |
| 20260503035336 | 5 | 282 | 0.0 | 1.6 | 0.00 | 0.00 | 0.00 | 66 | 1017.8 |
| 20260503034833 | 5 | 282 | 0.0 | 1.6 | 0.00 | 0.00 | 0.00 | 66 | 1017.9 |
| 20260503034540 | 5 | 282 | 0.0 | 1.6 | 0.00 | 0.00 | 0.00 | 66 | 1018.6 |
| 20260503034332 | 5 | 282 | 0.0 | 1.6 | 0.00 | 0.00 | 0.00 | 66 | 1017.8 |
| 20260503033832 | 5 | 282 | 0.0 | 1.6 | 0.00 | 0.00 | 0.00 | 66 | 1017.8 |
| 20260503033329 | 5 | 282 | 0.0 | 1.6 | 0.00 | 0.00 | 0.00 | 64 | 1017.8 |
| 20260503033038 | 5 | 282 | 0.0 | 1.6 | 0.00 | 0.00 | 0.00 | 62 | 1018.6 |
| 20260503032803 | 5 | 282 | 0.0 | 0.0 | 0.00 | 0.00 | 0.00 | 61 | 1017.8 |
| 20260503032236 | 5 | 282 | 0.0 | 0.0 | 0.00 | 0.00 | 0.00 | 61 | 1017.8 |
| 20260503031731 | 6 | 282 | 0.0 | 0.0 | 0.00 | 0.00 | 0.00 | 58 | 1017.9 |
| 20260503031206 | 6 | 282 | 0.0 | 0.0 | 0.00 | 0.00 | 0.00 | 57 | 1017.9 |
| 20260503030701 | 6 | 282 | 0.0 | 1.6 | 0.00 | 0.00 | 0.00 | 57 | 1017.9 |
| 20260503030042 | 6 | 282 | 0.0 | 0.0 | 0.00 | 0.00 | 0.00 | 57 | 1018.6 |
| 20260503025633 | 6 | 282 | 0.0 | 1.6 | 0.00 | 0.00 | 0.00 | 57 | 1017.9 |
| 20260503025108 | 6 | 282 | 0.0 | 1.6 | 0.00 | 0.00 | 0.00 | 57 | 1017.9 |
| 20260503024543 | 6 | 282 | 0.0 | 1.6 | 0.00 | 0.00 | 0.00 | 57 | 1017.9 |
| 20260503024514 | 6 | 282 | 0.0 | 1.6 | 0.00 | 0.00 | 0.00 | 57 | 1018.7 |
| 20260503024014 | 6 | 282 | 0.0 | 1.6 | 0.00 | 0.00 | 0.00 | 57 | 1017.9 |
| 20260503023447 | 6 | 282 | 0.0 | 1.6 | 0.00 | 0.00 | 0.00 | 58 | 1017.9 |
| 20260503023147 | 6 | 282 | 0.0 | 3.2 | 0.00 | 0.00 | 0.00 | 58 | 1017.9 |
| 20260503023056 | 6 | 282 | 0.0 | 3.2 | 0.00 | 0.00 | 0.00 | 58 | 1018.7 |
| 20260503022352 | 6 | 282 | 0.0 | 1.6 | 0.00 | 0.00 | 0.00 | 59 | 1017.9 |
| 20260503021847 | 6 | 282 | 0.0 | 1.6 | 0.00 | 0.00 | 0.00 | 59 | 1017.9 |
| 20260503021608 | 6 | 282 | 0.0 | 3.2 | 0.00 | 0.00 | 0.00 | 59 | 1017.8 |
| 20260503021535 | 6 | 282 | 0.0 | 1.6 | 0.00 | 0.00 | 0.00 | 59 | 1018.6 |
| 20260503020821 | 6 | 282 | 1.6 | 4.8 | 0.00 | 0.00 | 0.00 | 59 | 1017.8 |
| 20260503020251 | 6 | 282 | 0.0 | 4.8 | 0.00 | 0.00 | 0.00 | 59 | 1017.7 |
| 20260503020049 | 6 | 282 | 0.0 | 3.2 | 0.00 | 0.00 | 0.00 | 59 | 1018.5 |
| 20260503015749 | 6 | 282 | 0.0 | 3.2 | 0.00 | 0.00 | 0.00 | 59 | 1017.7 |
| 20260503015245 | 6 | 282 | 0.0 | 3.2 | 0.00 | 0.00 | 0.00 | 59 | 1017.6 |
| 20260503014743 | 6 | 282 | 1.6 | 3.2 | 0.00 | 0.00 | 0.00 | 59 | 1017.6 |
| 20260503014608 | 6 | 282 | 0.0 | 3.2 | 0.00 | 0.00 | 0.00 | 59 | 1018.4 |
| 20260503014240 | 7 | 282 | 1.6 | 4.8 | 0.00 | 0.00 | 0.00 | 59 | 1017.6 |
| 20260503013233 | 7 | 282 | 1.6 | 4.8 | 0.00 | 0.00 | 0.00 | 59 | 1017.5 |
| 20260503013039 | 6 | 282 | 1.6 | 4.8 | 0.00 | 0.00 | 0.00 | 58 | 1018.2 |
| 20260503012731 | 7 | 282 | 1.6 | 3.2 | 0.00 | 0.00 | 0.00 | 58 | 1017.4 |
| 20260503012204 | 7 | 282 | 1.6 | 4.8 | 0.00 | 0.00 | 0.00 | 58 | 1017.4 |
| 20260503011700 | 7 | 283 | 1.6 | 4.8 | 0.00 | 0.00 | 0.00 | 57 | 1017.3 |
| 20260503011553 | 7 | 282 | 0.0 | 4.8 | 0.00 | 0.00 | 0.00 | 57 | 1018.0 |
| 20260503011151 | 7 | 283 | 1.6 | 4.8 | 0.00 | 0.00 | 0.00 | 57 | 1017.3 |
| 20260503010622 | 7 | 283 | 1.6 | 4.8 | 0.00 | 0.00 | 0.00 | 57 | 1017.2 |
| 20260503010121 | 7 | 283 | 1.6 | 4.8 | 0.00 | 0.00 | 0.00 | 56 | 1017.2 |
| 20260503010008 | 7 | 284 | 0.0 | 3.2 | 0.00 | 0.00 | 0.00 | 56 | 1017.9 |
| 20260503005832 | 7 | 282 | 1.6 | 4.8 | 0.00 | 0.00 | 0.00 | 56 | 1017.2 |
| 20260503005315 | 7 | 282 | 1.6 | 4.8 | 0.00 | 0.00 | 0.00 | 55 | 1017.1 |
| 20260503004522 | 8 | 282 | 1.6 | 4.8 | 0.00 | 0.00 | 0.00 | 54 | 1017.1 |
| 20260503004506 | 7 | 282 | 1.6 | 4.8 | 0.00 | 0.00 | 0.00 | 54 | 1017.8 |
| 20260503003955 | 8 | 282 | 1.6 | 6.4 | 0.00 | 0.00 | 0.00 | 53 | 1017.0 |
| 20260503003427 | 8 | 282 | 1.6 | 6.4 | 0.00 | 0.00 | 0.00 | 53 | 1017.1 |
| 20260503003008 | 8 | 282 | 0.0 | 4.8 | 0.00 | 0.00 | 0.00 | 53 | 1017.8 |
| 20260503002925 | 8 | 282 | 1.6 | 6.4 | 0.00 | 0.00 | 0.00 | 53 | 1017.1 |
| 20260503002613 | 8 | 282 | 3.2 | 6.4 | 0.00 | 0.00 | 0.00 | 52 | 1017.1 |
| 20260503001855 | 8 | 282 | 3.2 | 9.7 | 0.00 | 0.00 | 0.00 | 51 | 1017.0 |
| 20260503001519 | 8 | 282 | 3.2 | 9.7 | 0.00 | 0.00 | 0.00 | 52 | 1017.7 |
| 20260503001327 | 9 | 282 | 3.2 | 4.8 | 0.00 | 0.00 | 0.00 | 51 | 1016.8 |
| 20260503000800 | 9 | 278 | 3.2 | 11.3 | 0.00 | 0.00 | 0.00 | 51 | 1016.7 |
| 20260503000236 | 9 | 273 | 3.2 | 11.3 | 0.00 | 0.00 | 0.00 | 50 | 1016.7 |
| 20260503000054 | 9 | 273 | 3.2 | 9.7 | 0.00 | 0.00 | 0.00 | 50 | 1017.5 |
| 20260502235710 | 10 | 273 | 3.2 | 8.0 | 0.00 | 0.00 | 0.00 | 50 | 1016.6 |
| 20260502235430 | 10 | 273 | 3.2 | 8.0 | 0.00 | 0.00 | 0.00 | 49 | 1016.6 |
| 20260502234638 | 10 | 290 | 3.2 | 16.1 | 0.00 | 0.00 | 0.00 | 49 | 1016.5 |
| 20260502234552 | 10 | 273 | 1.6 | 16.1 | 0.00 | 0.00 | 0.00 | 49 | 1017.4 |
| 20260502234135 | 10 | 288 | 1.6 | 16.1 | 0.00 | 0.00 | 0.00 | 49 | 1016.5 |
| 20260502233829 | 10 | 273 | 3.2 | 8.0 | 0.00 | 0.00 | 0.00 | 50 | 1016.4 |
| 20260502233106 | 10 | 278 | 3.2 | 8.0 | 0.00 | 0.00 | 0.00 | 48 | 1016.4 |
| 20260502233040 | 9 | 278 | 3.2 | 8.0 | 0.00 | 0.00 | 0.00 | 48 | 1017.2 |
| 20260502232601 | 10 | 282 | 3.2 | 12.9 | 0.00 | 0.00 | 0.00 | 48 | 1016.4 |
| 20260502232341 | 10 | 282 | 4.8 | 12.9 | 0.00 | 0.00 | 0.00 | 48 | 1016.4 |
| 20260502232236 | 10 | 287 | 4.8 | 12.9 | 0.00 | 0.00 | 0.00 | 48 | 1016.4 |
| 20260502231549 | 10 | 282 | 3.2 | 12.9 | 0.00 | 0.00 | 0.00 | 48 | 1017.2 |
| 20260502231029 | 10 | 288 | 3.2 | 14.5 | 0.00 | 0.00 | 0.00 | 46 | 1016.4 |
| 20260502230518 | 10 | 286 | 3.2 | 8.0 | 0.00 | 0.00 | 0.00 | 45 | 1016.4 |
| 20260502230105 | 10 | 282 | 1.6 | 6.4 | 0.00 | 0.00 | 0.00 | 45 | 1017.2 |
| 20260502225940 | 11 | 288 | 3.2 | 6.4 | 0.00 | 0.00 | 0.00 | 44 | 1016.3 |
| 20260502225438 | 11 | 273 | 3.2 | 16.1 | 0.00 | 0.00 | 0.00 | 44 | 1016.3 |
| 20260502225129 | 11 | 278 | 3.2 | 16.1 | 0.00 | 0.00 | 0.00 | 43 | 1016.2 |
| 20260502224551 | 11 | 287 | 1.6 | 16.1 | 0.00 | 0.00 | 0.00 | 45 | 1017.0 |
| 20260502224403 | 11 | 234 | 3.2 | 11.3 | 0.00 | 0.00 | 0.00 | 44 | 1016.2 |
| 20260502223834 | 11 | 282 | 4.8 | 11.3 | 0.00 | 0.00 | 0.00 | 44 | 1016.2 |
| 20260502223331 | 11 | 273 | 4.8 | 12.9 | 0.00 | 0.00 | 0.00 | 44 | 1016.2 |
| 20260502223043 | 11 | 289 | 3.2 | 12.9 | 0.00 | 0.00 | 0.00 | 44 | 1016.9 |
| 20260502222810 | 11 | 288 | 3.2 | 11.3 | 0.00 | 0.00 | 0.00 | 46 | 1016.1 |
| 20260502222804 | 11 | 273 | 3.2 | 9.7 | 0.00 | 0.00 | 0.00 | 44 | 1016.1 |
| 20260502221735 | 11 | 291 | 4.8 | 12.9 | 0.00 | 0.00 | 0.00 | 44 | 1016.1 |
| 20260502221557 | 10 | 286 | 4.8 | 12.9 | 0.00 | 0.00 | 0.00 | 43 | 1016.9 |
| 20260502221206 | 11 | 290 | 4.8 | 9.7 | 0.00 | 0.00 | 0.00 | 44 | 1016.1 |
| 20260502220704 | 11 | 290 | 3.2 | 11.3 | 0.00 | 0.00 | 0.00 | 43 | 1016.1 |
| 20260502220137 | 11 | 282 | 3.2 | 11.3 | 0.00 | 0.00 | 0.00 | 44 | 1016.2 |
| 20260502220015 | 11 | 289 | 1.6 | 8.0 | 0.00 | 0.00 | 0.00 | 47 | 1017.0 |
| 20260502215631 | 11 | 273 | 3.2 | 9.7 | 0.00 | 0.00 | 0.00 | 44 | 1016.0 |
| 20260502215114 | 11 | 273 | 4.8 | 9.7 | 0.00 | 0.00 | 0.00 | 45 | 1016.0 |
| 20260502214610 | 11 | 273 | 3.2 | 9.7 | 0.00 | 0.00 | 0.00 | 43 | 1016.0 |
| 20260502214528 | 11 | 273 | 3.2 | 9.7 | 0.00 | 0.00 | 0.00 | 42 | 1016.8 |
| 20260502214112 | 11 | 273 | 3.2 | 8.0 | 0.00 | 0.00 | 0.00 | 43 | 1016.0 |
| 20260502213613 | 11 | 273 | 4.8 | 8.0 | 0.00 | 0.00 | 0.00 | 42 | 1015.9 |
| 20260502213109 | 11 | 273 | 6.4 | 17.7 | 0.00 | 0.00 | 0.00 | 41 | 1015.9 |
| 20260502213017 | 11 | 273 | 4.8 | 11.3 | 0.00 | 0.00 | 0.00 | 42 | 1016.7 |
| 20260502212607 | 12 | 299 | 6.4 | 17.7 | 0.00 | 0.00 | 0.00 | 38 | 1015.8 |
| 20260502212039 | 12 | 144 | 4.8 | 16.1 | 0.00 | 0.00 | 0.00 | 46 | 1015.9 |
| 20260502211539 | 11 | 288 | 4.8 | 14.5 | 0.00 | 0.00 | 0.00 | 42 | 1015.9 |
| 20260502211507 | 11 | 288 | 6.4 | 14.5 | 0.00 | 0.00 | 0.00 | 42 | 1016.7 |
| 20260502211011 | 11 | 273 | 4.8 | 9.7 | 0.00 | 0.00 | 0.00 | 42 | 1015.8 |
| 20260502210507 | 11 | 273 | 4.8 | 9.7 | 0.00 | 0.00 | 0.00 | 42 | 1015.9 |
| 20260502210119 | 11 | 273 | 3.2 | 14.5 | 0.00 | 0.00 | 0.00 | 42 | 1016.6 |
| 20260502205941 | 11 | 287 | 4.8 | 14.5 | 0.00 | 0.00 | 0.00 | 42 | 1015.8 |
| 20260502205436 | 12 | 282 | 4.8 | 14.5 | 0.00 | 0.00 | 0.00 | 40 | 1015.8 |
| 20260502204913 | 11 | 288 | 4.8 | 14.5 | 0.00 | 0.00 | 0.00 | 44 | 1015.8 |
| 20260502204819 | 11 | 288 | 4.8 | 14.5 | 0.00 | 0.00 | 0.00 | 42 | 1015.9 |
| 20260502204512 | 11 | 286 | 3.2 | 14.5 | 0.00 | 0.00 | 0.00 | 42 | 1016.6 |
| 20260502203842 | 11 | 273 | 6.4 | 16.1 | 0.00 | 0.00 | 0.00 | 45 | 1015.9 |
| 20260502203328 | 11 | 273 | 4.8 | 16.1 | 0.00 | 0.00 | 0.00 | 42 | 1015.9 |
| 20260502203018 | 11 | 291 | 6.4 | 16.1 | 0.00 | 0.00 | 0.00 | 41 | 1016.7 |
| 20260502202827 | 11 | 287 | 4.8 | 17.7 | 0.00 | 0.00 | 0.00 | 42 | 1015.9 |
| 20260502202516 | 11 | 288 | 6.4 | 17.7 | 0.00 | 0.00 | 0.00 | 42 | 1016.0 |
| 20260502202025 | 11 | 288 | 4.8 | 17.7 | 0.00 | 0.00 | 0.00 | 43 | 1016.0 |
| 20260502201531 | 11 | 286 | 4.8 | 9.7 | 0.00 | 0.00 | 0.00 | 42 | 1016.8 |
| 20260502201457 | 12 | 282 | 4.8 | 19.3 | 0.00 | 0.00 | 0.00 | 40 | 1016.0 |
| 20260502200706 | 11 | 289 | 6.4 | 19.3 | 0.00 | 0.00 | 0.00 | 40 | 1016.1 |
| 20260502200138 | 11 | 286 | 6.4 | 17.7 | 0.00 | 0.00 | 0.00 | 44 | 1016.1 |
| 20260502200050 | 11 | 288 | 6.4 | 16.1 | 0.00 | 0.00 | 0.00 | 41 | 1016.9 |
| 20260502195900 | 11 | 286 | 6.4 | 19.3 | 0.00 | 0.00 | 0.00 | 43 | 1016.1 |
| 20260502195135 | 12 | 287 | 6.4 | 19.3 | 0.00 | 0.00 | 0.00 | 40 | 1016.2 |
| 20260502194631 | 12 | 224 | 4.8 | 14.5 | 0.00 | 0.00 | 0.00 | 40 | 1016.2 |
| 20260502194609 | 12 | 223 | 4.8 | 14.5 | 0.00 | 0.00 | 0.00 | 39 | 1017.0 |
| 20260502194106 | 12 | 144 | 6.4 | 14.5 | 0.00 | 0.00 | 0.00 | 41 | 1016.2 |
| 20260502193558 | 12 | 314 | 4.8 | 14.5 | 0.00 | 0.00 | 0.00 | 40 | 1016.2 |
| 20260502193057 | 12 | 284 | 4.8 | 12.9 | 0.00 | 0.00 | 0.00 | 41 | 1016.2 |
| 20260502193025 | 12 | 284 | 4.8 | 11.3 | 0.00 | 0.00 | 0.00 | 41 | 1017.0 |
| 20260502192531 | 12 | 284 | 4.8 | 12.9 | 0.00 | 0.00 | 0.00 | 41 | 1016.2 |
| 20260502192223 | 12 | 282 | 4.8 | 12.9 | 0.00 | 0.00 | 0.00 | 39 | 1016.4 |
| 20260502191514 | 12 | 262 | 4.8 | 12.9 | 0.00 | 0.00 | 0.00 | 42 | 1017.2 |
| 20260502191437 | 12 | 209 | 4.8 | 12.9 | 0.00 | 0.00 | 0.00 | 41 | 1016.4 |
| 20260502190912 | 12 | 289 | 4.8 | 17.7 | 0.00 | 0.00 | 0.00 | 42 | 1016.3 |
| 20260502190346 | 11 | 288 | 6.4 | 17.7 | 0.00 | 0.00 | 0.00 | 41 | 1016.4 |
| 20260502190056 | 11 | 288 | 4.8 | 17.7 | 0.00 | 0.00 | 0.00 | 39 | 1017.3 |
| 20260502185823 | 12 | 289 | 6.4 | 16.1 | 0.00 | 0.00 | 0.00 | 39 | 1016.5 |
| 20260502185543 | 12 | 285 | 4.8 | 16.1 | 0.00 | 0.00 | 0.00 | 39 | 1016.6 |